User: anonymous   Login
Location: Unspecified
(0.0000°N, 0.0000°E)
Time: 00:45:58
(UTC+00:00)
Language:

RASAT - Orbit

View from above orbital plane
View from above orbital plane
View from above satellite
View from above satellite

Ground track
Ground track

The orbit data is extracted from the following two-line orbital elements,

1 37791U 11044D   23081.80337267  .00001108  00000-0  21338-3 0  9997
2 37791  98.0847 175.4376 0021061 335.5936  24.4263 14.65392131619879
Epoch (UTC): 22 March 2023 19:16:51
Eccentricity: 0.0021061
inclination: 98.0847°
perigee height: 661 km
apogee height: 690 km
right ascension of ascending node: 175.4376°
argument of perigee: 335.5936°
revolutions per day: 14.65392131
mean anomaly at epoch: 24.4263°
orbit number at epoch: 61987

The dashed part of the orbit path shows where the satellite is in the earth's shadow,  

DLR